Weather History for North Bend, OR

Change the Weather History Date:

Thursday, November 1, 2012

  Actual Average Record
Temperature  
Mean Temperature 57 °F 51 °F  
Max Temperature 59 °F 58 °F 78 °F (1926)
Min Temperature 55 °F 45 °F 28 °F (1920)
Degree Days  
Heating Degree Days 8 14  
Month to date heating degree days 8 14  
Since 1 July heating degree days 907 980  
Cooling Degree Days 0 0  
Month to date cooling degree days 0 0  
Year to date cooling degree days 1 2  
Growing Degree Days 4 (Base 50)    
Moisture  
Dew Point 54 °F    
Average Humidity 94    
Maximum Humidity 100    
Minimum Humidity 80    
Precipitation  
Precipitation 0.17 in 0.25 in 3.64 in (1948)
Month to date precipitation 0.17 0.25  
Year to date precipitation 35.06 43.80  
Sea Level Pressure  
Sea Level Pressure 29.96 in    
Wind  
Wind Speed 11 mph (South)    
Max Wind Speed 20 mph    
Max Gust Speed 30 mph    
Visibility 9 miles    
Events      
T = Trace of Precipitation, MM = Missing Value Source: NWS Daily Summary

Daily Weather History Graph

Daily Weather History Graph

Search for Another Location

Airport:

Trip Planner

Search our weather history database for the weather conditions in past years. The results will help you decide how hot, cold, wet, or windy it might be!

Date:

Astronomy

Nov. 01, 2012 Rise Set
Actual Time 7:53 AM PDT 6:07 PM PDT
Civil Twilight 7:23 AM PDT 6:37 PM PDT
Nautical Twilight 6:49 AM PDT 7:10 PM PDT
Astronomical Twilight 6:16 AM PDT 7:44 PM PDT
Moon 8:05 PM PDT (11/1) 10:34 AM PDT (11/1)
Length of Visible Light 11h 13m
Length of Day
10h 14m
Waning Gibbous, 92% of the Moon is Illuminated
Nov 1
Waning Gibbous
Nov 6
Last Quarter
Nov 13
New
Nov 20
First Quarter
Nov 28
Full

Hourly Weather History & Observations

Time (PDT) Temp. Dew Point Humidity Pressure Visibility Wind Dir Wind Speed Gust Speed Precip Events Conditions
12:15 AM 57.2 °F 53.6 °F 88% 29.80 in 10.0 mi South 13.8 mph 20.7 mph N/A   Mostly Cloudy
12:35 AM 57.2 °F 51.8 °F 82% 29.79 in 10.0 mi South 16.1 mph 25.3 mph N/A   Scattered Clouds
12:55 AM 55.4 °F 51.8 °F 88% 29.79 in 10.0 mi South 15.0 mph 24.2 mph N/A   Scattered Clouds
1:15 AM 57.2 °F 51.8 °F 82% 29.80 in 10.0 mi South 17.3 mph 20.7 mph N/A   Mostly Cloudy
1:35 AM 57.2 °F 51.8 °F 82% 29.80 in 10.0 mi South 15.0 mph 20.7 mph N/A   Overcast
2:15 AM 57.2 °F 51.8 °F 82% 29.80 in 10.0 mi South 15.0 mph 23.0 mph N/A   Overcast
2:35 AM 57.2 °F 51.8 °F 82% 29.80 in 10.0 mi South 18.4 mph 26.5 mph N/A   Overcast
2:55 AM 57.2 °F 51.8 °F 82% 29.80 in 10.0 mi South 16.1 mph 26.5 mph N/A   Overcast
3:15 AM 57.2 °F 51.8 °F 82% 29.81 in 10.0 mi South 17.3 mph 32.2 mph N/A   Overcast
3:35 AM 55.4 °F 53.6 °F 94% 29.81 in 7.0 mi South 13.8 mph 20.7 mph 0.02 in   Overcast
3:55 AM 55.4 °F 53.6 °F 94% 29.82 in 7.0 mi South 18.4 mph 25.3 mph 0.06 in   Overcast
4:15 AM 55.4 °F 53.6 °F 94% 29.82 in 5.0 mi SSW 19.6 mph 31.1 mph 0.01 in   Overcast
4:35 AM 55.4 °F 53.6 °F 94% 29.82 in 5.0 mi SSW 19.6 mph 26.5 mph 0.05 in   Overcast
5:15 AM 55.4 °F 53.6 °F 94% 29.84 in 10.0 mi SSW 18.4 mph 29.9 mph 0.01 in   Overcast
5:35 AM 55.4 °F 55.4 °F 100% 29.85 in 9.0 mi SSW 19.6 mph 29.9 mph 0.01 in   Overcast
5:55 AM 55.4 °F 55.4 °F 100% 29.86 in 10.0 mi South 16.1 mph 25.3 mph 0.02 in   Overcast
6:35 AM 55.4 °F 55.4 °F 100% 29.88 in 8.0 mi SSW 12.7 mph 21.9 mph N/A   Overcast
6:55 AM 55.4 °F 55.4 °F 100% 29.88 in 10.0 mi SSW 16.1 mph 24.2 mph 0.01 in   Overcast
7:15 AM 55.4 °F 55.4 °F 100% 29.89 in 8.0 mi SSW 16.1 mph 20.7 mph 0.01 in   Overcast
7:35 AM 55.4 °F 55.4 °F 100% 29.91 in 5.0 mi SW 11.5 mph 17.3 mph 0.07 in   Overcast
7:55 AM 55.4 °F 55.4 °F 100% 29.91 in 3.0 mi SSW 10.4 mph 18.4 mph 0.09 in   Overcast
8:15 AM 55.4 °F 55.4 °F 100% 29.92 in 10.0 mi SSW 12.7 mph 21.9 mph 0.01 in   Overcast
8:35 AM 55.4 °F 55.4 °F 100% 29.93 in 10.0 mi SSW 11.5 mph 18.4 mph 0.01 in   Overcast
8:55 AM 57.2 °F 55.4 °F 94% 29.94 in 10.0 mi SSW 12.7 mph 20.7 mph 0.01 in   Overcast
9:15 AM 57.2 °F 55.4 °F 94% 29.94 in 9.0 mi SSW 11.5 mph 17.3 mph N/A   Overcast
9:35 AM 57.2 °F 55.4 °F 94% 29.95 in 10.0 mi SSW 10.4 mph 17.3 mph 0.01 in   Overcast
10:15 AM 57.2 °F 55.4 °F 94% 29.97 in 10.0 mi SSW 12.7 mph 19.6 mph N/A   Overcast
10:35 AM 57.2 °F 55.4 °F 94% 29.97 in 10.0 mi SSW 11.5 mph 19.6 mph N/A   Overcast
11:15 AM 57.2 °F 55.4 °F 94% 29.99 in 10.0 mi SSW 13.8 mph 20.7 mph N/A   Mostly Cloudy
11:35 AM 57.2 °F 55.4 °F 94% 30.01 in 10.0 mi SSW 11.5 mph 21.9 mph N/A   Overcast
11:55 AM 57.2 °F 55.4 °F 94% 30.02 in 10.0 mi SSW 10.4 mph 18.4 mph N/A   Overcast
12:15 PM 57.2 °F 55.4 °F 94% 30.03 in 10.0 mi South 10.4 mph 20.7 mph N/A   Overcast
12:35 PM 57.2 °F 55.4 °F 94% 30.03 in 10.0 mi South 11.5 mph - N/A   Overcast
12:55 PM 59.0 °F 55.4 °F 88% 30.02 in 10.0 mi South 12.7 mph 23.0 mph N/A   Overcast
1:15 PM 59.0 °F 55.4 °F 88% 30.02 in 10.0 mi South 16.1 mph 21.9 mph N/A   Overcast
1:35 PM 57.2 °F 55.4 °F 94% 30.03 in 10.0 mi South 12.7 mph - N/A   Overcast
1:55 PM 57.2 °F 55.4 °F 94% 30.02 in 10.0 mi South 13.8 mph 17.3 mph N/A   Overcast
2:15 PM 57.2 °F 55.4 °F 94% 30.02 in 2.0 mi South 5.8 mph - N/A   Overcast
2:35 PM 55.4 °F 53.6 °F 94% 30.02 in 2.0 mi South 11.5 mph 17.3 mph 0.01 in   Overcast
3:15 PM 55.4 °F 55.4 °F 100% 30.01 in 2.0 mi South 10.4 mph - 0.01 in   Overcast
3:35 PM 57.2 °F 55.4 °F 94% 30.01 in 10.0 mi South 5.8 mph - 0.01 in   Overcast
3:55 PM 57.2 °F 55.4 °F 94% 30.01 in 10.0 mi South 8.1 mph 17.3 mph 0.01 in   Overcast
4:15 PM 59.0 °F 55.4 °F 88% 30.02 in 10.0 mi South 6.9 mph - N/A   Mostly Cloudy
4:35 PM 59.0 °F 55.4 °F 88% 30.02 in 10.0 mi South 9.2 mph - N/A   Mostly Cloudy
4:55 PM 57.2 °F 55.4 °F 94% 30.02 in 10.0 mi SSW 6.9 mph - N/A   Mostly Cloudy
5:15 PM 57.2 °F 55.4 °F 94% 30.02 in 10.0 mi SSW 5.8 mph - N/A   Overcast
5:35 PM 57.2 °F 55.4 °F 94% 30.03 in 10.0 mi SSW 5.8 mph - N/A   Overcast
5:55 PM 57.2 °F 53.6 °F 88% 30.03 in 10.0 mi SSW 5.8 mph - N/A   Overcast
6:15 PM 57.2 °F 53.6 °F 88% 30.03 in 10.0 mi South 6.9 mph - N/A   Mostly Cloudy
6:35 PM 55.4 °F 53.6 °F 94% 30.03 in 10.0 mi South 6.9 mph - N/A   Partly Cloudy
6:55 PM 55.4 °F 51.8 °F 88% 30.03 in 10.0 mi South 4.6 mph - N/A   Clear
7:15 PM 53.6 °F 51.8 °F 94% 30.04 in 10.0 mi SSE 5.8 mph - N/A   Partly Cloudy
7:35 PM 53.6 °F 51.8 °F 94% 30.04 in 10.0 mi SSE 5.8 mph - N/A   Scattered Clouds
7:55 PM 51.8 °F 50.0 °F 94% 30.04 in 10.0 mi South 3.5 mph - N/A   Partly Cloudy
8:15 PM 53.6 °F 51.8 °F 94% 30.05 in 10.0 mi SSW 3.5 mph - N/A   Clear
8:35 PM 51.8 °F 51.8 °F 100% 30.05 in 10.0 mi South 3.5 mph - N/A   Clear
8:55 PM 50.0 °F 50.0 °F 100% 30.05 in 10.0 mi SSE 5.8 mph - N/A   Clear
9:15 PM 51.8 °F 51.8 °F 100% 30.04 in 0.5 mi SE 6.9 mph - N/A   Overcast
9:35 PM 51.8 °F 51.8 °F 100% 30.04 in 0.5 mi SSE 5.8 mph - N/A   Overcast
9:55 PM 51.8 °F 51.8 °F 100% 30.04 in 1.0 mi SE 5.8 mph - N/A   Overcast
10:15 PM 51.8 °F 51.8 °F 100% 30.05 in 3.0 mi SE 5.8 mph - N/A   Mostly Cloudy
10:35 PM 51.8 °F 51.8 °F 100% 30.04 in 10.0 mi SE 6.9 mph - N/A   Mostly Cloudy
10:55 PM 51.8 °F 51.8 °F 100% 30.02 in 10.0 mi SE 6.9 mph - N/A   Mostly Cloudy
11:15 PM 51.8 °F 50.0 °F 94% 30.02 in 10.0 mi SSE 3.5 mph - N/A   Partly Cloudy
11:35 PM 51.8 °F 50.0 °F 94% 30.02 in 10.0 mi SSE 3.5 mph - N/A   Clear
11:55 PM 51.8 °F 50.0 °F 94% 30.03 in 10.0 mi SSE 3.5 mph - N/A   Clear